Location: Hopkins Observatory
(42.6965°N, 73.1843°W)
Time: 01:56:06

UOSAT-12 - Visible Passes

Search period start: 02 December 2015 00:00
Search period end: 12 December 2015 00:00
Orbit: 608 x 647 km, 64.6° (Epoch: 01 December)

Date Brightness Start Highest point End Pass type
(mag) Time Alt. Az. Time Alt. Az. Time Alt. Az.
07 Dec 9.6 06:01:34 10° N 06:03:26 12° NNE 06:05:26 10° ENE visible
08 Dec 9.2 06:20:34 10° N 06:23:58 21° NE 06:27:26 10° E visible
10 Dec 9.6 05:21:09 10° N 05:23:28 14° NE 05:25:54 10° ENE visible
11 Dec 9.0 05:40:19 10° N 05:43:58 23° NE 05:47:38 10° E visible
